Location: Buttermere
(51.3333°N, 1.5167°W)
Time: 00:45:38
(UTC+00:00)

Cosmos 2263 Rocket - Visible Passes

Search period start: 24 January 2021 00:00
Search period end: 03 February 2021 00:00
Orbit: 823 x 849 km, 71.0° (Epoch: 23 January)

Date Brightness Start Highest point End Pass type
(mag) Time Alt. Az. Time Alt. Az. Time Alt. Az.
24 Jan 3.3 17:53:38 10° WSW 17:58:59 42° NW 18:04:21 10° NNE visible
24 Jan 4.6 19:41:26 10° WNW 19:44:32 15° NNW 19:47:31 10° N visible
25 Jan 3.2 17:36:46 10° WSW 17:42:11 44° NW 17:47:36 10° NNE visible
25 Jan 4.5 19:24:25 10° WNW 19:27:39 15° NNW 19:30:54 10° N visible
26 Jan 3.1 17:19:54 10° SW 17:25:22 47° NW 17:30:51 10° NNE visible
26 Jan 4.5 19:07:24 10° WNW 19:10:47 16° NNW 19:14:09 10° N visible
27 Jan 4.5 18:50:25 10° WNW 18:53:54 16° NNW 18:57:25 10° N visible
28 Jan 4.4 18:33:24 10° WNW 18:37:02 17° NNW 18:40:39 10° N visible
29 Jan 4.4 18:16:26 10° WNW 18:20:10 18° NNW 18:23:55 10° NNE visible
30 Jan 4.3 17:59:26 10° WNW 18:03:18 18° NNW 18:07:10 10° NNE visible
31 Jan 4.2 17:42:27 10° WNW 17:46:26 19° NNW 17:50:25 10° NNE visible
31 Jan 4.6 19:32:50 10° N 19:32:51 10° N 19:32:53 10° N visible
01 Feb 4.2 17:25:30 10° W 17:29:35 20° NNW 17:33:40 10° NNE visible
01 Feb 4.6 19:15:28 10° NNW 19:15:57 10° N 19:16:28 10° N visible
01 Feb 4.8 21:00:02 10° N 21:00:23 11° N 21:00:23 11° N visible
02 Feb 4.6 18:58:19 10° NNW 18:59:03 10° N 18:59:48 10° N visible
02 Feb 4.7 20:43:18 10° N 20:44:02 11° N 20:44:02 11° N visible
